User: anonymous   Login
Location: Palombina Nuova
(43.6167°N, 13.4000°E)
Time: 05:10:12
(UTC+00:00)
Language:

Cosmos 2173 Rocket - Orbit

View from above orbital plane
View from above orbital plane
View from above satellite
View from above satellite

Ground track
Ground track

The orbit data is extracted from the following two-line orbital elements,

1 21797U 91081B   20152.06941616  .00000126  00000-0  11160-3 0  9999
2 21797  82.9524 340.9186 0036823 306.8280 168.5238 13.77480056432922
Epoch (UTC): 31 May 2020 01:39:57
Eccentricity: 0.0036823
inclination: 82.9524°
perigee height: 946 km
apogee height: 1000 km
right ascension of ascending node: 340.9186°
argument of perigee: 306.8280°
revolutions per day: 13.77480056
mean anomaly at epoch: 168.5238°
orbit number at epoch: 43292

The dashed part of the orbit path shows where the satellite is in the earth's shadow,  

DLR